Date,TemperatureHighF,TemperatureAvgF,TemperatureLowF,DewpointHighF,DewpointAvgF,DewpointLowF,HumidityHigh,HumidityAvg,HumidityLow,PressureMaxIn,PressureMinIn,WindSpeedMaxMPH,WindSpeedAvgMPH,GustSpeedMaxMPH,PrecipitationSumIn
2013-1-1,40.1,36.6,26.7,30.0,24.8,12.0,71,63,49,30.01,29.84,7,2,14,0.01
2013-1-2,33.7,27.9,22.7,16.0,13.4,11.0,61,55,44,30.18,30.01,7,2,11,0.00
2013-1-3,35.2,29.6,24.4,19.0,16.7,15.0,73,59,45,30.19,30.07,4,1,9,0.00
2013-1-4,39.8,34.6,30.1,24.0,21.9,20.0,68,60,50,30.08,29.95,10,2,13,0.00
2013-1-5,44.8,36.9,31.6,24.0,21.7,19.0,63,55,42,30.28,30.02,10,2,13,0.00
2013-1-6,48.5,39.8,33.3,33.0,28.3,23.0,89,65,48,30.22,29.97,5,1,8,0.00
2013-1-7,47.5,39.9,32.8,30.0,25.8,21.0,77,59,39,30.39,30.05,8,1,10,0.00
2013-1-8,50.0,39.5,31.0,33.0,29.2,25.0,81,68,52,30.43,30.34,3,1,9,0.00
2013-1-9,49.0,40.9,31.0,39.0,33.6,28.0,90,76,65,30.38,30.12,5,1,13,0.00
2013-1-10,49.9,43.6,38.0,34.0,26.4,24.0,65,52,38,30.54,30.23,8,2,12,0.00
2013-1-11,45.0,40.5,36.3,44.0,32.9,25.0,96,75,59,30.53,30.09,2,0,6,0.58
2013-1-12,47.7,45.2,42.0,45.0,43.7,41.0,96,94,91,30.17,30.07,4,0,6,0.02
2013-1-13,47.7,45.6,43.1,47.0,44.6,42.0,98,96,92,30.15,30.01,3,0,5,0.01
2013-1-14,57.2,50.3,40.2,54.0,43.5,30.0,98,80,50,30.29,29.90,6,2,12,0.13
2013-1-15,39.7,37.5,35.4,36.0,29.2,26.0,90,73,62,30.35,30.21,4,1,9,0.13
2013-1-16,37.1,33.8,31.9,34.0,32.0,30.0,95,93,82,30.21,29.82,4,1,7,0.67
2013-1-17,44.4,39.8,35.7,34.0,29.2,25.0,88,67,54,30.09,29.91,5,1,11,0.04
2013-1-18,35.5,29.2,26.3,25.0,11.4,4.0,67,49,32,30.48,30.00,9,2,14,0.00
2013-1-19,51.3,40.0,27.9,30.0,23.8,12.0,71,53,38,30.40,29.91,7,2,10,0.00
2013-1-20,55.6,43.0,29.8,31.0,23.6,11.0,74,49,24,30.04,29.69,13,3,21,0.00
2013-1-21,31.7,28.8,25.1,18.0,11.9,8.0,65,50,42,30.09,29.84,6,1,10,0.00
2013-1-22,26.6,19.9,13.1,13.0,1.7,-7.0,71,46,28,30.21,29.83,9,3,17,0.00
2013-1-23,20.1,14.8,10.4,2.0,-3.2,-7.0,59,46,33,30.25,30.16,8,2,13,0.00
2013-1-24,24.1,17.3,12.1,4.0,0.1,-5.0,69,49,28,30.41,30.13,11,3,17,0.00
2013-1-25,23.9,17.6,12.2,16.0,5.5,-3.0,86,61,42,30.42,30.07,6,1,11,0.00
2013-1-26,28.4,20.7,14.7,13.0,8.9,6.0,84,62,42,30.38,30.05,10,2,13,0.00
2013-1-27,35.7,26.5,18.2,13.0,10.6,8.0,70,53,35,30.53,30.38,12,1,12,0.00
2013-1-28,35.5,31.2,24.7,33.0,24.9,13.0,93,79,55,30.49,30.00,4,1,6,0.01
2013-1-29,56.6,43.2,35.6,44.0,39.0,33.0,94,86,59,30.15,29.99,4,1,8,0.05
2013-1-30,60.6,47.3,39.3,58.0,45.8,38.0,97,94,87,30.06,29.35,3,0,9,0.11
2013-1-31,61.5,45.5,29.4,60.0,31.8,10.0,95,61,36,29.79,29.05,17,5,27,0.97
2013-2-1,32.1,28.0,23.4,16.0,11.7,4.0,70,52,32,30.23,29.79,8,3,16,0.00
2013-2-2,30.2,24.4,18.5,21.0,9.8,5.0,86,56,36,30.30,30.05,6,1,11,0.00
2013-2-3,31.0,26.3,23.1,22.0,19.7,17.0,90,77,60,30.05,29.79,4,1,7,0.00
2013-2-4,31.5,27.1,22.2,20.0,11.4,8.0,76,53,40,29.97,29.81,8,2,14,0.00
2013-2-5,30.8,29.0,26.2,28.0,24.8,14.0,91,84,57,29.98,29.90,3,0,6,0.00
2013-2-6,39.1,33.3,28.0,29.0,21.5,5.0,93,65,37,30.36,29.92,7,2,12,0.01
2013-2-7,33.2,28.9,24.1,23.0,11.5,6.0,70,49,40,30.51,30.32,4,1,6,0.00
2013-2-8,33.9,32.0,27.1,32.0,28.8,23.0,95,88,70,30.32,29.64,10,2,13,0.10
2013-2-9,34.2,28.1,20.7,27.0,17.2,8.0,95,66,39,30.34,29.76,10,3,22,0.00
2013-2-10,36.5,26.8,15.5,23.0,14.5,8.0,74,61,41,30.48,30.32,2,0,9,0.02
2013-2-11,42.3,36.9,31.2,42.0,34.1,22.0,98,90,69,30.33,29.66,2,0,5,0.07
2013-2-12,46.4,40.8,35.5,40.0,27.9,25.0,97,61,47,29.97,29.72,6,2,13,0.01
2013-2-13,45.4,36.9,29.0,32.0,26.6,23.0,92,68,47,29.95,29.69,4,0,8,0.02
2013-2-14,49.0,39.4,32.2,33.0,29.7,23.0,93,71,39,29.99,29.71,5,1,7,0.01
2013-2-15,56.0,43.2,34.4,39.0,33.3,28.0,86,70,41,30.01,29.91,6,1,11,0.00
2013-2-16,40.7,35.9,30.7,34.0,27.3,15.0,91,72,52,29.97,29.74,9,2,12,0.07
2013-2-17,32.7,26.8,17.5,15.0,5.7,0.0,54,41,29,30.02,29.67,13,5,20,0.00
2013-2-18,36.0,26.5,16.3,13.0,6.2,1.0,56,43,29,30.25,30.02,10,2,17,0.00
2013-2-19,48.8,38.6,28.6,44.0,29.2,14.0,93,70,49,30.19,29.67,5,1,16,0.27
2013-2-20,37.3,30.6,24.9,26.0,14.2,10.0,66,51,40,29.99,29.72,9,4,16,0.00
2013-2-21,35.6,28.3,24.0,15.0,12.6,10.0,65,53,41,30.28,29.98,11,4,19,0.00
2013-2-22,38.4,32.0,23.5,32.0,22.6,14.0,80,69,53,30.40,30.26,3,1,7,0.00
2013-2-23,41.6,38.1,36.4,41.0,36.5,32.0,96,94,80,30.27,29.80,5,1,8,0.33
2013-2-24,49.5,39.3,33.3,39.0,31.5,22.0,95,75,53,29.97,29.74,11,3,15,0.01
2013-2-25,44.8,38.6,30.7,29.0,26.6,22.0,79,63,50,30.22,29.98,8,1,10,0.00
2013-2-26,45.3,38.9,33.1,35.0,30.8,27.0,92,73,60,30.28,29.90,6,2,10,0.13
2013-2-27,47.2,41.9,36.2,45.0,39.2,34.0,97,90,77,29.89,29.50,9,2,14,0.94
2013-2-28,51.5,44.4,38.1,39.0,34.2,29.0,83,69,52,29.62,29.54,4,1,9,0.00
2013-3-1,46.3,39.7,35.3,31.0,29.1,26.0,80,67,51,29.78,29.60,7,2,12,0.00
2013-3-2,41.3,35.9,31.2,27.0,24.5,23.0,76,64,52,29.78,29.70,10,2,13,0.00
2013-3-3,41.1,32.8,28.2,23.0,19.0,16.0,71,58,43,29.77,29.66,6,3,12,0.00
2013-3-4,42.4,33.8,26.9,22.0,18.9,15.0,69,55,42,29.91,29.77,12,3,16,0.00
2013-3-5,50.8,39.6,30.5,31.0,24.9,20.0,70,57,40,30.02,29.91,7,1,10,0.00
2013-3-6,41.5,39.8,37.9,36.0,31.7,27.0,83,73,63,29.97,29.85,15,4,18,0.00
2013-3-7,39.0,36.3,32.9,34.0,30.4,27.0,94,80,64,30.08,29.91,10,4,17,0.27
2013-3-8,40.1,34.6,31.2,34.0,31.5,30.0,94,88,73,30.19,30.00,6,1,12,0.55
2013-3-9,55.9,43.1,32.0,34.0,25.4,18.0,79,54,25,30.32,30.17,6,2,11,0.01
2013-3-10,49.0,39.7,30.6,37.0,33.7,29.0,93,80,59,30.39,30.31,5,1,10,0.00
2013-3-11,52.4,45.1,38.9,46.0,41.2,35.0,93,86,74,30.32,30.09,8,1,11,0.00
2013-3-12,57.0,49.7,44.0,57.0,47.3,38.0,98,91,77,30.09,29.65,7,2,12,1.04
2013-3-13,51.4,43.6,38.1,38.0,30.6,24.0,83,62,36,29.89,29.79,5,1,17,0.00
2013-3-14,41.2,35.2,29.9,26.0,13.0,6.0,65,42,26,29.96,29.84,14,4,22,0.00
2013-3-15,47.2,38.2,29.4,31.0,19.8,9.0,62,48,37,29.98,29.71,7,2,12,0.00
2013-3-16,42.4,35.9,33.1,31.0,26.1,20.0,90,69,49,29.91,29.78,6,1,8,0.02
2013-3-17,38.4,33.6,28.2,30.0,18.7,13.0,86,56,39,30.30,29.91,7,2,13,0.01
2013-3-18,37.1,31.4,26.4,32.0,19.5,8.0,94,64,43,30.40,30.02,4,1,8,0.00
2013-3-19,44.6,37.8,33.2,37.0,33.6,28.0,95,85,67,30.01,29.69,5,2,16,0.56
2013-3-20,47.5,39.0,31.8,25.0,19.5,17.0,63,47,32,29.88,29.77,12,2,14,0.00
2013-3-21,40.0,34.6,30.4,28.0,17.4,10.0,85,52,34,29.84,29.62,9,2,11,0.00
2013-3-22,41.5,35.0,28.0,23.0,17.6,12.0,66,50,38,29.89,29.73,9,2,15,0.00
2013-3-23,46.0,38.7,32.2,23.0,20.1,18.0,63,48,35,29.94,29.83,7,2,16,0.00
2013-3-24,48.0,39.9,32.1,28.0,21.8,18.0,63,50,36,29.95,29.70,8,2,13,0.00
2013-3-25,39.9,38.2,36.1,35.0,30.3,25.0,90,74,56,29.70,29.47,6,2,10,0.12
2013-3-26,53.6,43.8,36.0,32.0,28.8,24.0,82,58,35,29.86,29.58,6,2,12,0.00
2013-3-27,54.7,44.1,35.5,31.0,26.5,20.0,65,52,28,29.97,29.85,9,3,13,0.00
2013-3-28,49.9,44.2,36.9,34.0,30.2,29.0,76,59,45,30.11,29.95,10,2,13,0.00
2013-3-29,55.9,46.4,37.7,30.0,28.8,26.0,71,52,34,30.14,30.05,7,2,12,0.00
2013-3-30,60.4,49.0,38.3,32.0,26.4,15.0,70,46,19,30.16,30.05,5,1,9,0.00
2013-3-31,53.8,45.7,36.7,45.0,34.6,25.0,95,67,44,30.11,29.67,6,1,11,0.12
2013-4-1,65.2,49.4,37.8,46.0,37.7,13.0,95,68,34,29.90,29.61,10,2,18,0.01
2013-4-2,45.7,38.4,32.0,18.0,13.3,10.0,50,37,26,30.09,29.91,10,3,14,0.00
2013-4-3,47.9,39.0,32.1,15.0,12.0,9.0,47,34,22,30.30,30.09,11,3,16,0.00
2013-4-4,54.8,42.2,31.7,33.0,21.7,14.0,61,45,28,30.39,30.08,10,2,12,0.00
2013-4-5,65.5,50.8,41.0,31.0,24.6,17.0,65,40,16,30.07,29.70,14,3,16,0.00
2013-4-6,54.1,43.2,34.7,31.0,17.4,7.0,63,39,16,30.30,30.02,11,2,17,0.00
2013-4-7,57.6,49.3,39.0,45.0,36.9,27.0,74,63,38,30.30,29.98,7,2,14,0.00
2013-4-8,74.6,58.8,48.2,47.0,44.5,41.0,83,62,31,30.06,29.96,7,1,15,0.00
2013-4-9,85.6,68.7,53.2,53.0,44.9,37.0,85,49,18,29.99,29.88,8,1,14,0.00
2013-4-10,77.6,64.5,55.7,57.0,50.9,45.0,94,63,44,29.93,29.80,8,1,13,0.63
2013-4-11,61.7,55.4,48.4,58.0,49.6,41.0,96,81,67,30.03,29.76,5,2,11,0.02
2013-4-12,48.3,43.6,41.7,42.0,40.5,39.0,94,89,74,30.02,29.71,8,2,11,0.56
2013-4-13,59.2,50.3,39.7,43.0,37.7,34.0,94,65,42,29.97,29.75,4,1,10,0.03
2013-4-14,59.4,52.9,45.5,44.0,34.1,28.0,83,52,31,30.20,29.96,8,2,13,0.00
2013-4-15,56.6,50.1,44.5,42.0,32.5,27.0,80,52,37,30.37,30.21,5,1,10,0.00
2013-4-16,64.5,56.0,47.7,55.0,49.1,42.0,85,78,70,30.37,30.11,9,2,15,0.00
2013-4-17,73.7,63.1,53.9,57.0,44.4,32.0,82,55,22,30.28,30.10,5,1,10,0.00
2013-4-18,57.8,54.0,51.4,52.0,45.1,39.0,96,73,50,30.34,30.09,9,1,10,0.03
2013-4-19,73.8,62.6,53.2,65.0,58.6,52.0,97,87,71,30.09,29.63,6,1,12,0.10
2013-4-20,63.5,54.2,47.7,61.0,35.3,24.0,91,53,30,30.28,29.68,8,3,16,0.11
2013-4-21,55.4,46.0,36.5,34.0,24.3,18.0,62,44,26,30.61,30.29,12,2,13,0.00
2013-4-22,53.8,47.9,40.4,37.0,32.9,29.0,76,57,41,30.66,30.49,9,2,10,0.00
2013-4-23,52.3,45.7,40.2,42.0,37.6,32.0,89,73,65,30.48,30.11,6,2,11,0.00
2013-4-24,70.0,55.3,41.2,52.0,45.9,37.0,88,72,50,30.10,29.81,5,1,10,0.00
2013-4-25,67.9,57.3,46.8,54.0,33.1,21.0,83,44,18,30.25,29.84,10,2,15,0.00
2013-4-26,69.1,56.9,43.7,40.0,33.1,22.0,74,45,19,30.39,30.25,5,1,10,0.00
2013-4-27,73.1,58.7,45.6,36.0,31.0,28.0,55,37,20,30.42,30.27,5,1,8,0.00
2013-4-28,68.4,58.0,49.3,44.0,36.4,30.0,61,46,27,30.30,30.19,5,1,16,0.00
2013-4-29,56.4,54.4,53.0,51.0,48.3,42.0,89,80,60,30.23,30.18,5,1,9,0.18
2013-4-30,66.6,57.3,50.5,50.0,39.6,26.0,93,58,25,30.33,30.20,7,1,12,0.00
2013-5-1,67.4,55.7,45.5,46.0,38.7,29.0,75,55,26,30.47,30.32,10,2,11,0.00
2013-5-2,71.0,58.8,45.5,47.0,44.3,42.0,89,62,39,30.46,30.31,5,1,9,0.00
2013-5-3,65.0,56.3,50.0,45.0,40.9,35.0,82,58,38,30.46,30.35,7,1,9,0.00
2013-5-4,68.4,54.7,44.9,48.0,43.5,40.0,90,68,38,30.37,30.25,6,1,11,0.00
2013-5-5,61.2,52.2,45.7,45.0,41.6,38.0,81,68,46,30.29,30.23,5,1,10,0.00
2013-5-6,67.5,55.9,45.6,53.0,47.6,41.0,86,75,59,30.27,30.15,6,1,8,0.00
2013-5-7,74.6,63.5,50.1,60.0,55.4,47.0,90,76,57,30.16,30.07,7,1,11,0.00
2013-5-8,67.3,61.0,55.1,62.0,57.9,52.0,96,89,80,30.09,29.96,4,1,8,1.65
2013-5-9,69.8,61.1,53.8,60.0,55.8,52.0,97,84,63,29.99,29.88,5,0,7,1.30
2013-5-10,83.3,66.7,54.7,59.0,56.8,53.0,96,73,42,29.99,29.88,5,1,13,0.00
2013-5-11,73.6,65.9,62.8,66.0,62.5,58.0,95,89,68,29.89,29.68,4,1,9,0.51
2013-5-12,70.4,62.7,51.9,62.0,41.6,25.0,93,50,23,29.93,29.65,9,3,13,0.00
2013-5-13,58.4,51.4,45.2,34.0,29.3,24.0,64,44,29,30.11,29.93,8,2,12,0.00
2013-5-14,63.6,53.2,41.5,34.0,28.0,20.0,71,42,20,30.13,30.01,7,2,10,0.00
2013-5-15,71.1,59.6,50.7,59.0,46.2,29.0,76,62,38,30.06,29.66,4,1,12,0.00
2013-5-16,82.7,71.4,60.7,60.0,53.8,42.0,87,56,34,29.81,29.70,6,1,9,0.00
2013-5-17,76.3,67.2,59.1,45.0,42.0,39.0,55,41,29,30.19,29.82,6,2,11,0.00
2013-5-18,65.1,59.9,56.6,55.0,50.5,44.0,85,72,54,30.30,30.19,3,0,7,0.01
2013-5-19,59.2,57.3,55.5,58.0,55.7,52.0,98,94,77,30.30,30.16,4,1,8,0.47
2013-5-20,81.9,69.7,58.4,68.0,63.5,58.0,98,82,61,30.16,29.95,3,1,8,0.01
2013-5-21,91.5,78.4,66.8,72.0,68.4,65.0,93,73,52,29.96,29.82,6,1,9,0.00
2013-5-22,79.6,71.8,61.0,71.0,65.9,58.0,91,82,71,29.93,29.82,4,1,6,0.00
2013-5-23,83.9,73.7,66.4,71.0,68.0,64.0,95,83,59,29.88,29.74,5,1,11,0.91
2013-5-24,66.9,56.6,46.1,65.0,53.3,42.0,95,89,74,29.95,29.67,14,2,14,0.52
2013-5-25,55.1,50.4,45.5,45.0,42.1,38.0,92,74,57,30.01,29.90,11,3,19,0.34
2013-5-26,70.3,58.5,47.9,40.0,37.1,34.0,71,48,27,30.19,29.95,8,3,21,0.00
2013-5-27,78.2,63.9,45.9,43.0,38.7,34.0,76,43,24,30.24,30.10,5,1,9,0.00
2013-5-28,70.1,60.2,55.0,59.0,51.2,43.0,97,75,45,30.22,30.12,4,0,6,0.66
2013-5-29,88.7,72.7,59.0,70.0,64.0,58.0,98,77,49,30.12,29.98,4,1,9,0.00
2013-5-30,95.5,85.0,72.8,69.0,66.3,64.0,82,56,36,30.11,30.03,5,1,10,0.00
2013-5-31,95.1,85.7,74.2,72.0,66.4,59.0,78,55,32,30.11,29.96,6,1,10,0.00
2013-6-1,94.7,84.2,72.9,71.0,68.0,64.0,83,60,41,30.01,29.87,6,2,10,0.00
2013-6-2,91.5,82.7,70.5,72.0,68.9,65.0,92,64,43,29.90,29.75,8,2,11,1.06
2013-6-3,80.1,73.1,68.7,70.0,67.7,49.0,94,84,49,29.88,29.79,3,1,8,0.42
2013-6-4,78.8,68.2,57.4,47.0,44.6,41.0,64,44,30,30.10,29.88,8,2,13,0.00
2013-6-5,75.0,65.7,54.6,57.0,46.0,40.0,85,51,35,30.20,30.10,8,1,11,0.00
2013-6-6,71.6,64.4,59.0,60.0,57.7,51.0,92,80,51,30.14,30.01,6,1,11,0.15
2013-6-7,64.0,61.8,60.1,63.0,60.6,59.0,97,95,91,30.00,29.61,6,1,14,3.99
2013-6-8,77.8,68.9,57.6,65.0,61.5,56.0,97,79,61,30.04,29.57,5,1,11,0.05
2013-6-9,85.0,73.9,61.2,64.0,60.1,57.0,92,65,42,30.16,30.04,4,1,8,0.00
2013-6-10,71.3,67.6,64.0,66.0,64.0,63.0,97,88,75,30.14,29.82,4,1,12,1.36
2013-6-11,83.3,73.7,64.2,69.0,65.8,60.0,99,78,55,29.80,29.61,7,2,11,0.14
2013-6-12,80.4,72.8,66.2,62.0,56.3,53.0,77,57,42,29.84,29.70,9,2,16,0.00
2013-6-13,67.4,64.1,57.3,62.0,59.1,55.0,95,84,71,29.81,29.45,8,1,14,1.09
2013-6-14,73.9,62.4,53.8,60.0,54.5,51.0,94,77,53,29.88,29.52,7,2,12,0.43
2013-6-15,84.3,72.9,59.6,58.0,55.2,51.0,86,57,33,30.00,29.88,8,1,11,0.00
2013-6-16,85.1,74.4,63.8,67.0,58.9,52.0,78,60,38,29.98,29.76,6,1,15,0.00
2013-6-17,88.4,77.5,68.3,69.0,65.9,63.0,89,69,43,29.90,29.82,6,1,10,0.10
2013-6-18,85.8,72.3,64.8,70.0,65.2,61.0,94,79,53,29.89,29.80,6,1,10,0.36
2013-6-19,80.5,69.8,59.2,63.0,54.2,46.0,94,62,32,30.16,29.87,5,1,11,0.00
2013-6-20,81.7,71.6,60.9,61.0,56.1,52.0,79,59,39,30.25,30.16,6,1,12,0.00
2013-6-21,86.3,73.9,63.1,61.0,55.2,49.0,69,53,37,30.29,30.21,5,1,11,0.00
2013-6-22,87.7,74.5,64.5,64.0,58.4,52.0,70,58,40,30.25,30.12,6,1,11,0.00
2013-6-23,92.3,79.1,68.8,74.0,67.7,62.0,88,69,47,30.18,30.04,6,1,12,0.03
2013-6-24,97.6,84.4,74.1,74.0,69.6,61.0,91,64,33,30.06,29.93,6,1,9,0.00
2013-6-25,95.5,83.0,72.5,73.0,69.2,65.0,81,64,42,29.98,29.80,8,1,13,0.01
2013-6-26,89.8,81.4,74.3,73.0,68.9,67.0,86,67,51,29.84,29.77,5,1,8,0.00
2013-6-27,88.5,79.6,73.8,74.0,71.5,69.0,95,77,54,29.81,29.55,9,1,12,0.49
2013-6-28,89.8,80.1,74.0,72.0,70.1,66.0,92,73,50,29.55,29.46,6,2,12,0.00
2013-6-29,87.4,78.6,71.1,74.0,69.2,66.0,87,74,50,29.68,29.48,7,1,11,0.00
2013-6-30,87.5,78.0,73.5,76.0,72.9,71.0,92,84,64,29.90,29.68,6,1,12,0.01
2013-7-1,78.0,75.2,72.5,75.0,72.7,71.0,98,92,86,30.04,29.89,3,1,9,1.51
2013-7-2,85.6,78.2,73.9,76.0,73.5,72.0,94,85,70,30.17,30.04,4,1,8,0.07
2013-7-3,87.7,79.7,73.6,77.0,73.6,70.0,93,82,64,30.24,30.15,7,1,16,0.04
2013-7-4,92.6,84.1,76.9,76.0,74.3,72.0,92,74,56,30.24,30.13,7,1,10,0.00
2013-7-5,94.9,85.8,76.2,76.0,73.2,71.0,90,68,48,30.21,30.07,5,1,13,0.00
2013-7-6,97.5,86.6,78.6,76.0,73.6,71.0,84,67,44,30.12,30.01,5,2,9,0.00
2013-7-7,97.8,88.2,79.4,76.0,73.2,66.0,80,62,44,30.04,29.91,6,2,14,0.00
2013-7-8,93.0,82.3,73.2,72.0,69.0,67.0,83,65,46,30.03,29.95,5,2,10,0.00
2013-7-9,92.7,83.5,74.9,73.0,69.5,67.0,79,64,47,30.06,29.97,4,1,9,0.02
2013-7-10,90.8,83.0,76.8,76.0,73.1,71.0,86,73,56,30.00,29.79,5,2,10,0.05
2013-7-11,88.0,81.8,77.2,75.0,70.6,65.0,89,70,50,29.91,29.79,6,1,9,0.08
2013-7-12,78.9,74.6,69.0,70.0,66.4,63.0,93,76,67,30.08,29.91,6,2,10,0.12
2013-7-13,82.9,74.7,68.1,76.0,71.9,67.0,97,91,77,30.27,30.09,3,1,7,0.28
2013-7-14,94.7,84.5,75.2,77.0,73.9,71.0,96,73,47,30.32,30.22,4,1,8,0.00
2013-7-15,98.8,88.0,78.8,76.0,73.4,70.0,82,63,45,30.23,30.11,5,1,8,0.00
2013-7-16,95.8,87.4,78.0,73.0,68.9,66.0,74,56,38,30.19,30.11,9,2,9,0.00
2013-7-17,99.1,87.6,78.5,74.0,71.9,69.0,78,61,38,30.18,30.04,3,0,8,0.00
2013-7-18,102.1,91.9,82.9,77.0,73.1,69.0,72,56,35,30.05,29.93,5,1,11,0.00
2013-7-19,100.1,92.0,83.8,79.0,76.5,74.0,78,62,44,29.96,29.77,7,2,13,0.00
2013-7-20,95.7,86.9,81.1,78.0,73.6,71.0,74,65,49,29.82,29.71,7,2,12,0.04
2013-7-21,90.4,82.2,77.7,74.0,68.0,62.0,86,64,42,29.95,29.82,5,1,8,0.03
2013-7-22,86.2,79.3,76.2,77.0,73.2,69.0,95,82,68,29.94,29.79,5,0,11,0.15
2013-7-23,90.4,80.9,73.9,76.0,73.0,71.0,96,78,56,29.78,29.54,7,1,9,0.34
2013-7-24,85.2,78.5,69.3,71.0,65.2,54.0,82,65,51,29.92,29.60,6,2,10,0.00
2013-7-25,68.9,66.4,64.0,60.0,55.0,50.0,79,67,58,30.04,29.93,6,2,11,0.00
2013-7-26,86.3,75.4,66.5,66.0,60.9,59.0,79,63,42,30.03,29.98,6,1,8,0.00
2013-7-27,84.0,75.7,67.3,67.0,65.2,60.0,90,71,49,30.04,29.95,7,2,13,0.00
2013-7-28,79.2,74.0,70.6,72.0,69.2,66.0,94,85,74,29.97,29.91,7,1,14,0.59
2013-7-29,87.3,77.4,68.9,70.0,64.0,52.0,96,67,33,30.09,29.95,4,1,9,0.01
2013-7-30,83.4,74.3,62.9,60.0,57.8,56.0,80,58,43,30.16,30.09,6,1,9,0.00
2013-7-31,85.1,75.3,63.3,65.0,60.6,58.0,83,62,40,30.15,30.02,6,1,9,0.00
2013-8-1,75.9,71.4,67.9,70.0,66.5,64.0,96,84,69,30.03,29.83,3,1,8,1.03
2013-8-2,86.7,76.7,65.9,69.0,64.3,60.0,97,69,42,29.91,29.78,6,1,11,0.00
2013-8-3,79.9,73.6,69.6,67.0,64.1,60.0,87,72,59,29.91,29.83,7,1,10,0.05
2013-8-4,83.5,73.7,65.4,64.0,57.9,51.0,88,60,38,29.96,29.85,9,2,12,0.00
2013-8-5,81.1,70.9,61.4,54.0,50.9,46.0,73,51,34,30.05,29.96,7,1,10,0.00
2013-8-6,83.5,73.1,60.6,63.0,56.8,53.0,82,59,36,30.11,30.02,9,1,11,0.00
2013-8-7,80.2,74.0,70.5,69.0,65.7,62.0,85,75,64,30.13,30.05,11,2,13,0.00
2013-8-8,82.7,75.3,69.8,75.0,71.2,67.0,96,87,73,30.06,29.99,5,1,14,0.41
2013-8-9,88.1,79.7,74.5,77.0,74.3,72.0,95,84,66,30.00,29.79,6,2,14,0.08
2013-8-10,86.5,78.2,68.6,73.0,64.6,59.0,89,65,44,30.04,29.85,5,1,9,0.00
2013-8-11,84.7,74.9,64.1,66.0,59.1,54.0,78,59,41,30.12,30.02,3,1,7,0.00
2013-8-12,85.2,76.0,69.8,71.0,67.3,62.0,90,76,46,30.02,29.92,5,0,8,0.11
2013-8-13,78.7,73.8,69.5,72.0,69.3,66.0,96,86,70,29.92,29.69,3,0,6,0.83
2013-8-14,77.2,68.7,59.7,66.0,53.2,49.0,86,59,44,30.04,29.75,13,2,19,0.00
2013-8-15,81.2,68.8,57.0,56.0,51.3,46.0,78,56,32,30.14,30.05,6,1,8,0.00
2013-8-16,81.5,71.7,59.3,59.0,55.3,51.0,88,59,37,30.20,30.12,5,1,7,0.00
2013-8-17,85.7,73.4,59.9,62.0,57.3,54.0,86,59,36,30.27,30.20,3,0,6,0.00
2013-8-18,78.1,72.3,67.3,64.0,58.8,53.0,76,63,43,30.25,30.13,2,0,5,0.00
2013-8-19,80.5,73.4,65.4,66.0,62.8,59.0,88,70,54,30.13,30.03,4,1,7,0.00
2013-8-20,91.2,78.9,65.1,68.0,65.3,63.0,94,66,39,30.12,30.04,3,0,10,0.00
2013-8-21,92.8,81.4,68.6,67.0,64.0,59.0,87,58,34,30.17,30.05,4,1,6,0.00
2013-8-22,79.9,75.4,72.2,73.0,70.9,66.0,93,86,63,30.06,29.87,9,1,11,0.38
2013-8-23,84.0,76.1,70.2,71.0,61.5,54.0,93,63,36,30.09,29.87,6,1,10,0.00
2013-8-24,82.7,71.7,62.7,60.0,55.2,52.0,73,57,37,30.34,30.10,7,1,9,0.00
2013-8-25,86.0,73.5,59.6,59.0,56.7,52.0,91,59,33,30.39,30.23,5,1,8,0.00
2013-8-26,84.1,75.7,67.9,70.0,62.7,57.0,83,65,54,30.23,29.90,6,2,14,0.03
2013-8-27,89.5,79.6,73.0,70.0,68.8,67.0,86,71,49,29.90,29.81,7,2,11,0.00
2013-8-28,87.8,75.8,71.4,74.0,71.2,68.0,94,86,59,29.89,29.84,3,0,7,0.73
2013-8-29,81.9,74.6,70.7,71.0,68.8,66.0,96,83,66,30.02,29.87,4,1,6,0.00
2013-8-30,86.9,76.9,69.5,72.0,68.5,66.0,87,76,56,30.02,29.85,5,1,9,0.00
2013-8-31,89.3,80.3,72.6,75.0,72.1,69.0,89,77,61,29.86,29.77,5,1,8,0.00
2013-9-1,86.0,79.4,75.2,76.0,73.1,70.0,92,81,69,29.85,29.78,5,1,7,0.35
2013-9-2,85.0,77.7,74.6,76.0,73.6,71.0,95,87,72,29.79,29.70,2,0,5,0.24
2013-9-3,84.3,75.8,69.4,73.0,65.2,57.0,95,72,47,29.88,29.70,7,1,10,0.02
2013-9-4,84.0,73.7,64.5,61.0,58.6,54.0,80,61,42,30.00,29.88,8,2,12,0.00
2013-9-5,80.9,71.7,63.3,62.0,54.1,43.0,80,56,33,30.14,29.92,9,2,12,0.00
2013-9-6,74.0,64.2,54.7,51.0,44.6,41.0,67,51,33,30.25,30.13,4,1,7,0.00
2013-9-7,81.9,70.1,55.2,54.0,49.7,46.0,81,51,31,30.12,29.89,3,1,9,0.00
2013-9-8,84.2,73.3,63.2,66.0,56.2,45.0,74,57,36,30.08,29.82,12,2,14,0.00
2013-9-9,72.4,65.3,55.6,60.0,50.7,44.0,76,60,40,30.23,30.08,6,1,10,0.00
2013-9-10,88.8,77.9,68.6,74.0,69.2,60.0,85,75,61,30.16,30.04,4,1,10,0.00
2013-9-11,96.8,86.1,75.8,78.0,74.8,72.0,90,70,52,30.11,29.95,5,1,9,0.00
2013-9-12,87.9,79.3,70.8,75.0,72.0,68.0,93,79,62,29.98,29.66,4,1,12,0.36
2013-9-13,79.3,69.4,59.3,68.0,60.1,49.0,93,74,49,29.85,29.63,14,2,14,0.13
2013-9-14,67.5,59.6,53.3,50.0,47.4,45.0,77,65,52,30.13,29.85,7,2,12,0.00
2013-9-15,74.3,62.4,48.4,53.0,46.7,43.0,85,59,35,30.21,30.07,5,1,8,0.00
2013-9-16,76.7,64.9,58.6,58.0,54.2,48.0,88,70,45,30.24,30.03,7,1,12,0.02
2013-9-17,67.1,57.4,48.2,48.0,40.5,37.0,70,55,38,30.43,30.24,7,2,12,0.00
2013-9-18,74.0,60.4,46.8,53.0,46.1,42.0,88,63,34,30.35,30.18,4,1,9,0.00
2013-9-19,79.3,64.6,49.3,59.0,51.5,47.0,91,66,33,30.19,30.06,5,0,8,0.00
2013-9-20,80.4,67.1,55.4,61.0,57.4,52.0,92,73,47,30.08,29.99,7,1,12,0.00
2013-9-21,76.4,67.7,56.9,68.0,62.4,55.0,94,84,69,30.01,29.66,9,1,12,0.21
2013-9-22,70.7,63.8,55.0,67.0,52.6,42.0,96,69,43,29.91,29.65,8,2,13,0.61
2013-9-23,67.8,57.5,49.5,46.0,42.9,41.0,74,60,42,30.05,29.91,7,2,13,0.00
2013-9-24,75.4,59.6,45.1,47.0,43.9,40.0,84,59,35,30.05,29.87,5,1,9,0.00
2013-9-25,75.5,61.8,48.5,52.0,46.9,43.0,85,60,35,29.95,29.86,3,0,5,0.00
2013-9-26,71.6,62.6,54.9,59.0,55.0,50.0,89,77,60,30.09,29.93,4,0,7,0.00
2013-9-27,71.5,62.0,54.6,55.0,52.3,50.0,85,71,56,30.26,30.09,3,1,6,0.00
2013-9-28,75.0,64.5,54.7,55.0,53.2,50.0,89,69,43,30.32,30.23,3,1,7,0.00
2013-9-29,74.7,62.3,53.7,59.0,54.4,51.0,94,77,50,30.23,30.08,4,0,9,0.00
2013-9-30,75.9,63.2,52.1,57.0,53.4,50.0,95,73,45,30.08,29.96,3,0,8,0.00
2013-10-1,83.9,68.7,53.4,61.0,56.7,51.0,93,68,42,30.01,29.89,6,1,9,0.00
2013-10-2,85.6,72.7,58.0,64.0,60.1,54.0,88,66,47,30.01,29.90,6,1,10,0.00
2013-10-3,81.0,70.8,59.1,62.0,57.9,50.0,89,66,35,30.12,30.01,2,0,6,0.00
2013-10-4,87.7,75.4,63.8,69.0,63.4,57.0,84,67,47,30.06,29.95,5,1,10,0.00
2013-10-5,76.9,69.0,64.6,66.0,64.3,62.0,93,85,69,30.10,30.01,4,1,8,0.05
2013-10-6,70.3,67.8,65.5,67.0,65.6,64.0,95,93,90,30.09,30.02,4,1,7,0.00
2013-10-7,79.3,67.9,59.3,73.0,64.7,51.0,97,89,73,30.02,29.75,12,2,16,0.43
2013-10-8,69.9,60.1,52.9,50.0,46.3,42.0,85,62,39,30.32,29.99,5,1,9,0.00
2013-10-9,62.2,56.8,51.0,50.0,46.6,42.0,80,69,62,30.39,30.28,5,1,10,0.00
2013-10-10,62.6,57.8,52.9,55.0,51.4,47.0,88,79,75,30.28,30.07,6,2,10,0.02
2013-10-11,68.2,63.4,59.7,61.0,57.5,54.0,92,81,74,30.08,30.00,6,2,9,0.00
2013-10-12,72.7,65.4,59.0,59.0,49.5,40.0,80,58,31,30.28,30.06,11,2,14,0.00
2013-10-13,65.5,59.7,55.6,55.0,51.5,49.0,82,74,65,30.38,30.27,6,1,11,0.00
2013-10-14,69.3,58.4,49.7,52.0,49.8,47.0,91,75,48,30.36,30.24,3,0,9,0.00
2013-10-15,74.4,59.9,50.0,57.0,51.1,48.0,95,75,50,30.25,30.11,3,0,7,0.00
2013-10-16,68.5,60.9,54.1,60.0,55.5,49.0,91,83,70,30.11,29.91,3,0,6,0.00
2013-10-17,75.2,66.2,61.3,63.0,61.4,59.0,95,85,63,29.91,29.68,4,0,9,0.01
2013-10-18,70.7,62.9,55.8,63.0,48.1,42.0,90,60,40,29.98,29.67,9,2,14,0.00
2013-10-19,64.3,56.2,46.4,55.0,46.5,41.0,87,71,46,29.98,29.74,5,1,8,0.00
2013-10-20,65.4,56.9,49.0,54.0,40.3,34.0,87,56,34,30.06,29.75,5,2,13,0.00
2013-10-21,69.1,56.6,43.3,47.0,40.3,35.0,82,57,31,30.15,29.98,4,1,10,0.00
2013-10-22,66.9,56.9,49.6,50.0,46.8,38.0,86,70,53,29.98,29.75,6,1,8,0.00
2013-10-23,55.7,48.9,44.3,39.0,37.0,34.0,76,65,46,29.82,29.61,7,1,9,0.00
2013-10-24,55.9,46.4,40.1,36.0,31.4,26.0,78,58,35,30.02,29.75,8,2,13,0.00
2013-10-25,54.6,46.2,38.5,35.0,31.2,28.0,74,57,40,30.23,30.01,9,2,12,0.00
2013-10-26,56.2,47.1,35.8,35.0,32.0,29.0,83,58,37,30.22,29.90,8,1,16,0.00
2013-10-27,59.3,51.5,44.8,35.0,32.6,31.0,62,49,36,30.12,29.85,7,2,11,0.00
2013-10-28,62.2,51.1,39.9,36.0,33.8,31.0,75,54,36,30.31,30.12,9,1,10,0.00
2013-10-29,56.8,48.8,43.0,36.0,33.1,31.0,67,56,43,30.42,30.31,3,1,6,0.00
2013-10-30,60.9,51.4,42.5,51.0,43.1,33.0,89,74,62,30.35,30.17,2,0,8,0.00
2013-10-31,66.0,58.4,48.7,61.0,54.5,47.0,93,87,76,30.22,29.79,9,1,9,0.09
2013-11-1,70.1,66.0,60.2,64.0,59.2,54.0,93,79,59,29.79,29.55,9,2,20,0.17
2013-11-2,69.7,59.3,52.7,57.0,47.2,40.0,92,66,42,29.78,29.61,5,1,9,0.00
2013-11-3,54.3,45.9,35.3,43.0,33.0,21.0,79,61,46,30.45,29.77,8,2,12,0.00
2013-11-4,46.0,39.0,32.3,26.0,19.6,16.0,60,47,31,30.65,30.46,5,1,9,0.00
2013-11-5,54.8,46.8,36.7,44.0,36.3,26.0,81,67,58,30.65,30.48,6,0,7,0.00
2013-11-6,60.3,52.9,42.2,52.0,46.3,40.0,93,79,60,30.49,30.06,7,1,9,0.00
2013-11-7,63.1,54.0,42.4,58.0,48.7,33.0,93,82,61,30.06,29.74,6,1,14,0.17
2013-11-8,49.5,43.9,39.1,34.0,28.3,22.0,76,56,41,30.22,29.94,7,2,11,0.00
2013-11-9,50.5,43.9,36.4,35.0,28.4,25.0,72,56,38,30.29,29.99,5,1,9,0.00
2013-11-10,60.7,48.6,39.9,40.0,33.6,27.0,79,58,36,30.05,29.80,9,2,19,0.00
2013-11-11,53.6,48.2,39.4,34.0,29.5,26.0,61,49,41,30.21,29.96,9,2,11,0.00
2013-11-12,51.0,38.3,30.2,35.0,24.9,17.0,88,60,45,30.29,29.93,6,2,15,0.04
2013-11-13,38.9,33.0,27.0,20.0,15.6,11.0,66,50,32,30.38,30.27,9,2,12,0.00
2013-11-14,52.7,41.6,31.0,21.0,18.2,14.0,64,42,22,30.27,30.16,8,2,12,0.00
2013-11-15,57.3,46.9,35.0,30.0,25.8,20.0,65,45,28,30.25,30.15,4,1,6,0.00
2013-11-16,59.9,50.6,45.2,48.0,41.5,29.0,95,73,44,30.32,30.22,4,0,8,0.04
2013-11-17,60.1,54.4,47.3,58.0,52.2,46.0,97,92,86,30.27,29.79,5,0,6,0.00
2013-11-18,65.9,59.7,50.8,62.0,41.9,25.0,98,57,31,29.78,29.59,8,2,13,0.31
2013-11-19,50.2,43.4,35.6,30.0,25.1,22.0,58,49,43,30.34,29.78,8,4,16,0.00
2013-11-20,43.6,36.3,31.2,22.0,17.4,11.0,65,48,27,30.61,30.34,7,1,13,0.00
2013-11-21,51.1,42.4,29.8,43.0,31.4,19.0,77,66,52,30.61,30.38,5,1,9,0.00
2013-11-22,57.5,52.8,49.0,50.0,46.9,41.0,91,80,74,30.38,29.90,7,1,8,0.04
2013-11-23,54.1,41.9,29.8,48.0,24.8,9.0,85,52,34,30.03,29.90,12,3,18,0.00
2013-11-24,29.4,25.1,22.0,11.0,4.1,0.0,48,41,29,30.38,30.02,13,4,18,0.00
2013-11-25,36.4,28.8,20.9,14.0,10.9,6.0,57,48,38,30.49,30.33,6,2,10,0.00
2013-11-26,44.9,36.4,32.3,44.0,25.8,15.0,96,68,45,30.33,29.77,3,1,6,0.64
2013-11-27,61.2,46.8,34.1,60.0,43.0,21.0,98,87,58,29.75,29.34,10,3,17,2.57
2013-11-28,34.9,31.6,29.3,22.0,13.3,9.0,62,47,35,30.47,29.76,9,2,19,0.00
2013-11-29,38.5,32.8,28.1,21.0,18.1,13.0,65,55,46,30.73,30.47,4,1,7,0.00
2013-11-30,36.7,31.3,23.2,28.0,19.2,11.0,72,62,46,30.76,30.38,3,1,6,0.00
2013-12-1,49.2,41.8,33.5,34.0,30.5,27.0,81,65,50,30.37,30.01,3,0,6,0.00
2013-12-2,49.4,43.0,38.8,38.0,33.8,29.0,88,71,60,30.00,29.88,2,0,3,0.00
2013-12-3,54.0,43.6,35.6,39.0,35.6,34.0,92,75,53,30.00,29.87,2,0,5,0.00
2013-12-4,50.4,44.9,36.9,44.0,38.7,33.0,87,79,66,30.13,30.01,3,0,4,0.00
2013-12-5,57.5,52.3,46.4,56.0,50.3,43.0,97,93,81,30.12,29.93,2,0,4,0.04
2013-12-6,56.9,47.0,36.5,56.0,45.1,35.0,98,93,88,30.15,29.86,7,1,10,1.13
2013-12-7,40.9,36.2,30.8,35.0,27.4,17.0,94,72,54,30.51,30.10,7,2,13,0.12
2013-12-8,32.6,29.5,27.4,28.0,20.0,15.0,94,69,57,30.59,30.38,6,1,7,0.00
2013-12-9,37.6,33.9,29.8,36.0,32.6,28.0,96,94,91,30.37,29.97,5,2,9,0.47
2013-12-10,34.9,32.4,27.9,32.0,29.2,18.0,95,88,66,30.13,29.88,7,1,10,0.12
2013-12-11,33.4,28.7,24.2,18.0,16.9,15.0,71,62,49,30.33,30.14,8,2,13,0.00
2013-12-12,27.4,24.3,21.2,17.0,8.9,5.0,68,53,41,30.36,30.17,7,2,11,0.00
2013-12-13,34.9,28.2,20.3,19.0,13.0,6.0,60,53,45,30.32,30.13,7,2,15,0.00
2013-12-14,31.7,24.0,19.1,27.0,19.1,16.0,96,83,57,30.48,29.84,7,2,10,0.00
2013-12-15,38.8,35.9,31.4,34.0,28.1,22.0,86,73,64,29.84,29.59,7,2,13,0.14
2013-12-16,31.9,27.2,22.8,23.0,13.3,9.0,71,56,44,30.23,29.83,9,2,12,0.00
2013-12-17,28.7,24.1,20.8,27.0,17.3,-99.9,92,79,61,30.22,29.93,3,-12,7,0.00
2013-12-18,36.8,29.2,20.4,25.0,21.0,17.0,87,72,56,30.16,29.93,7,2,11,0.06
2013-12-19,43.9,35.5,26.6,32.0,25.7,20.0,79,68,52,30.18,30.02,4,1,8,0.11
2013-12-20,50.3,43.2,34.4,39.0,33.4,31.0,88,70,53,30.10,29.96,4,1,8,0.00
2013-12-21,62.0,53.1,44.1,54.0,47.7,39.0,93,82,68,29.99,29.89,5,1,8,0.00
2013-12-22,70.3,65.3,55.6,64.0,59.7,53.0,93,82,72,29.95,29.80,8,3,14,0.01
2013-12-23,61.5,54.8,41.1,59.0,51.8,30.0,97,89,66,30.16,29.89,9,1,18,0.61
2013-12-24,40.9,35.0,25.4,30.0,21.9,9.0,72,60,47,30.35,30.09,11,3,16,0.00
2013-12-25,25.0,20.5,17.9,10.0,6.9,6.0,62,56,51,30.53,30.35,9,2,14,0.00
2013-12-26,35.5,33.0,32.0,27.0,22.4,-99.9,74,69,61,30.28,30.16,6,-18,8,0.00
2013-12-27,40.5,34.4,29.3,25.0,21.6,18.0,73,60,46,30.36,30.26,6,1,9,0.00
2013-12-28,54.9,42.5,30.4,30.0,26.1,22.0,74,54,36,30.28,30.06,6,2,14,0.00
2013-12-29,46.0,41.9,40.4,40.0,34.8,28.0,96,77,50,30.05,29.42,6,1,10,1.42
2013-12-30,44.5,35.2,22.1,38.0,26.4,10.0,91,71,54,30.19,29.69,9,2,13,0.00
2013-12-31,31.4,25.7,20.3,24.0,12.5,8.0,76,58,46,30.29,30.06,6,2,16,0.00
2014-1-1,32.7,28.3,22.5,21.0,15.5,8.0,65,59,49,30.41,30.24,4,1,6,0.00
2014-1-2,31.1,24.5,13.8,23.0,19.5,11.0,91,81,64,30.23,29.68,9,3,12,0.00